Date,TemperatureHighF,TemperatureAvgF,TemperatureLowF,DewpointHighF,DewpointAvgF,DewpointLowF,HumidityHigh,HumidityAvg,HumidityLow,PressureMaxIn,PressureMinIn,WindSpeedMaxMPH,WindSpeedAvgMPH,GustSpeedMaxMPH,PrecipitationSumIn
2013-9-1,100.3,90.6,81.2,74.0,69.3,65.0,69,51,31,29.82,29.70,17,6,19,0.00
2013-9-2,93.8,84.3,77.7,76.0,73.1,70.0,87,70,48,29.96,29.79,13,4,15,0.00
2013-9-3,97.0,85.9,76.0,75.0,69.6,65.0,78,59,36,29.95,29.82,10,4,12,0.00
2013-9-4,96.2,86.5,78.5,76.0,71.7,67.0,81,63,40,30.00,29.89,11,6,12,0.00
2013-9-5,99.1,86.7,76.4,74.0,68.1,64.0,71,55,35,30.06,29.94,8,2,10,0.00
2013-9-6,98.3,86.8,75.3,74.0,67.0,63.0,72,53,33,30.04,29.89,11,3,11,0.00
2013-9-7,97.5,87.4,78.7,73.0,68.6,64.0,78,56,34,29.98,29.85,15,5,22,0.00
2013-9-8,95.5,85.0,72.6,73.0,67.6,63.0,87,58,35,29.93,29.81,13,4,17,0.00
2013-9-9,93.6,85.0,74.0,72.0,67.7,64.0,86,58,38,29.96,29.85,14,5,20,0.00
2013-9-10,92.1,82.9,74.7,73.0,67.3,60.0,86,61,35,30.06,29.93,16,6,20,0.00
2013-9-11,94.6,83.2,73.0,74.0,69.5,63.0,88,65,44,30.08,29.95,13,3,18,0.00
2013-9-12,95.5,84.9,73.9,75.0,69.9,67.0,86,63,41,30.02,29.87,8,1,12,0.00
2013-9-13,93.8,84.6,77.4,73.0,71.2,68.0,79,65,46,29.92,29.78,16,5,23,0.00
2013-9-14,90.0,81.7,74.2,72.0,65.4,59.0,73,59,44,29.94,29.83,15,9,19,0.00
2013-9-15,93.8,83.1,73.7,71.0,64.9,58.0,62,55,44,29.99,29.90,11,4,13,0.00
2013-9-16,95.7,85.0,73.4,74.0,67.7,64.0,81,58,36,30.05,29.90,8,2,12,0.00
2013-9-17,84.9,83.8,82.7,71.0,68.5,67.0,68,60,55,29.98,29.97,7,3,7,0.00
2013-9-18,94.3,89.6,82.9,69.0,65.4,63.0,57,45,36,29.88,29.82,14,6,19,0.00
2013-9-19,88.6,81.7,71.2,76.0,71.8,67.0,97,73,56,29.95,29.82,18,5,33,0.00
2013-9-20,75.4,73.1,70.5,73.0,71.1,65.0,99,93,81,29.89,29.80,20,10,21,0.00
2013-9-21,81.2,71.9,63.8,65.0,56.8,50.0,86,62,35,29.95,29.82,17,9,19,0.00
2013-9-22,81.6,71.7,59.5,59.0,55.5,51.0,89,59,35,29.91,29.77,9,3,10,0.00
2013-9-23,84.7,72.5,61.4,64.0,57.0,53.0,82,61,36,29.84,29.71,9,4,17,0.00
2013-9-24,91.7,76.9,63.7,69.0,59.4,47.0,89,60,22,29.89,29.79,13,3,18,0.00
2013-9-25,90.4,75.2,60.5,67.0,58.2,53.0,87,59,28,29.86,29.73,7,2,8,0.00
2013-9-26,92.3,80.7,67.7,63.0,59.0,55.0,71,49,30,29.85,29.75,12,4,18,0.00
2013-9-27,86.4,78.9,68.5,72.0,67.7,62.0,80,69,58,29.91,29.80,14,7,21,0.00
2013-9-28,84.4,75.5,66.0,75.0,70.6,64.0,96,85,71,30.00,29.84,16,8,21,0.00
2013-9-29,80.1,70.4,63.2,65.0,58.7,49.0,93,69,36,30.01,29.87,14,6,17,0.00
2013-9-30,85.3,72.9,59.9,68.0,59.5,52.0,91,65,36,29.89,29.77,9,2,15,0.00